TimeEST,TemperatureF,Dew PointF,Humidity,Sea Level PressureIn,VisibilityMPH,Wind Direction,Wind SpeedMPH,Gust SpeedMPH,PrecipitationIn,Events,Conditions,WindDirDegrees,DateUTC
12:15 AM,42.8,39.2,87,29.97,0.8,Calm,Calm,-,N/A,,Overcast,0,2014-02-21 05:15:00
12:35 AM,42.8,39.2,87,29.96,1.8,Calm,Calm,-,N/A,,Overcast,0,2014-02-21 05:35:00
12:55 AM,44.6,41.0,87,29.95,0.8,ESE,3.5,-,N/A,,Overcast,110,2014-02-21 05:55:00
1:15 AM,44.6,41.0,87,29.94,1.8,ESE,4.6,-,N/A,,Overcast,110,2014-02-21 06:15:00
1:35 AM,44.6,41.0,87,29.93,0.8,ESE,5.8,-,N/A,,Overcast,110,2014-02-21 06:35:00
1:55 AM,42.8,39.2,87,29.93,0.8,ESE,4.6,-,N/A,,Overcast,110,2014-02-21 06:55:00
2:15 AM,42.8,39.2,87,29.92,3.0,ESE,4.6,-,N/A,,Overcast,110,2014-02-21 07:15:00
2:35 AM,42.8,39.2,87,29.91,0.2,ESE,5.8,-,N/A,,Overcast,120,2014-02-21 07:35:00
2:55 AM,42.8,39.2,87,29.90,0.2,ESE,4.6,-,N/A,,Overcast,120,2014-02-21 07:55:00
3:15 AM,44.6,41.0,87,29.91,0.2,SE,4.6,-,N/A,,Overcast,130,2014-02-21 08:15:00
3:35 AM,44.6,41.0,87,29.91,0.2,Calm,Calm,-,N/A,,Overcast,0,2014-02-21 08:35:00
3:55 AM,44.6,42.8,93,29.90,0.2,SSE,6.9,-,N/A,,Overcast,150,2014-02-21 08:55:00
4:15 AM,44.6,41.0,87,29.90,0.2,SSE,6.9,-,N/A,,Overcast,160,2014-02-21 09:15:00
4:35 AM,44.6,42.8,93,29.91,0.2,South,5.8,-,N/A,,Overcast,190,2014-02-21 09:35:00
4:55 AM,48.2,44.6,87,29.91,0.2,South,9.2,-,N/A,,Overcast,190,2014-02-21 09:55:00
5:15 AM,46.4,44.6,93,29.90,0.2,SSE,6.9,-,N/A,,Overcast,160,2014-02-21 10:15:00
5:35 AM,46.4,44.6,93,29.90,0.2,South,9.2,-,N/A,,Overcast,170,2014-02-21 10:35:00
5:55 AM,48.2,46.4,93,29.89,0.2,South,10.4,-,N/A,,Overcast,170,2014-02-21 10:55:00
6:15 AM,48.2,46.4,93,29.89,0.5,South,12.7,-,N/A,,Overcast,180,2014-02-21 11:15:00
6:35 AM,50.0,46.4,87,29.87,0.5,South,13.8,-,N/A,,Overcast,170,2014-02-21 11:35:00
6:55 AM,48.2,46.4,93,29.86,0.2,South,11.5,-,N/A,,Overcast,170,2014-02-21 11:55:00
7:15 AM,51.8,48.2,88,29.86,0.2,South,15.0,19.6,N/A,,Overcast,170,2014-02-21 12:15:00
7:35 AM,51.8,48.2,88,29.86,0.2,South,16.1,-,N/A,,Overcast,170,2014-02-21 12:35:00
7:55 AM,51.8,48.2,88,29.86,0.2,South,13.8,19.6,N/A,,Overcast,170,2014-02-21 12:55:00
8:15 AM,51.8,48.2,88,29.87,0.2,South,19.6,24.2,N/A,,Overcast,180,2014-02-21 13:15:00
8:35 AM,51.8,50.0,94,29.88,0.2,South,16.1,23.0,N/A,,Overcast,180,2014-02-21 13:35:00
8:55 AM,51.8,50.0,94,29.86,0.5,South,17.3,21.9,N/A,,Overcast,180,2014-02-21 13:55:00
9:15 AM,53.6,50.0,88,29.86,0.5,South,15.0,20.7,N/A,,Overcast,170,2014-02-21 14:15:00
9:35 AM,53.6,51.8,94,29.86,0.8,South,18.4,-,N/A,,Overcast,180,2014-02-21 14:35:00
9:55 AM,51.8,50.0,94,29.86,0.8,South,16.1,24.2,N/A,,Overcast,180,2014-02-21 14:55:00
10:15 AM,53.6,50.0,88,29.85,2.0,South,18.4,23.0,N/A,,Overcast,180,2014-02-21 15:15:00
10:35 AM,53.6,51.8,94,29.85,3.0,South,15.0,24.2,N/A,,Overcast,180,2014-02-21 15:35:00
10:55 AM,55.4,51.8,88,29.84,10.0,South,18.4,23.0,N/A,,Overcast,180,2014-02-21 15:55:00
11:15 AM,57.2,55.4,94,29.83,10.0,South,19.6,25.3,N/A,,Overcast,180,2014-02-21 16:15:00
11:35 AM,57.2,53.6,88,29.81,10.0,South,19.6,25.3,N/A,,Overcast,180,2014-02-21 16:35:00
11:55 AM,57.2,53.6,88,29.80,10.0,South,17.3,25.3,N/A,,Overcast,170,2014-02-21 16:55:00
12:15 PM,57.2,53.6,88,29.80,10.0,South,18.4,25.3,N/A,,Overcast,170,2014-02-21 17:15:00
12:35 PM,55.4,51.8,88,29.77,6.0,South,19.6,29.9,N/A,,Overcast,170,2014-02-21 17:35:00
12:55 PM,53.6,51.8,94,29.76,9.0,South,21.9,26.5,N/A,,Overcast,170,2014-02-21 17:55:00
1:15 PM,55.4,51.8,88,29.77,10.0,South,17.3,21.9,N/A,,Overcast,180,2014-02-21 18:15:00
1:35 PM,55.4,51.8,88,29.75,10.0,SSE,17.3,24.2,N/A,,Overcast,160,2014-02-21 18:35:00
1:55 PM,53.6,50.0,88,29.74,9.0,SSE,18.4,24.2,N/A,,Overcast,160,2014-02-21 18:55:00
2:15 PM,53.6,48.2,82,29.76,5.0,South,13.8,27.6,N/A,,Overcast,190,2014-02-21 19:15:00
2:35 PM,53.6,51.8,94,29.76,9.0,SSW,16.1,25.3,N/A,,Mostly Cloudy,200,2014-02-21 19:35:00
2:55 PM,57.2,53.6,88,29.76,10.0,SSW,13.8,20.7,0.04,Thunderstorm,Thunderstorm,210,2014-02-21 19:55:00
3:15 PM,57.2,53.6,88,29.76,10.0,South,10.4,-,0.06,,Overcast,180,2014-02-21 20:15:00
3:35 PM,57.2,53.6,88,29.75,10.0,South,13.8,21.9,0.08,,Overcast,190,2014-02-21 20:35:00
3:55 PM,57.2,53.6,88,29.76,10.0,South,12.7,-,0.09,,Overcast,190,2014-02-21 20:55:00
4:15 PM,55.4,51.8,88,29.81,10.0,West,20.7,27.6,N/A,,Overcast,280,2014-02-21 21:15:00
4:35 PM,46.4,41.0,81,29.84,10.0,NW,9.2,20.7,N/A,,Overcast,310,2014-02-21 21:35:00
4:55 PM,46.4,42.8,87,29.83,10.0,NW,6.9,-,N/A,,Overcast,320,2014-02-21 21:55:00
5:15 PM,46.4,41.0,81,29.83,10.0,NW,5.8,-,N/A,,Overcast,320,2014-02-21 22:15:00
5:35 PM,46.4,41.0,81,29.85,10.0,NW,5.8,-,N/A,,Overcast,310,2014-02-21 22:35:00
5:55 PM,44.6,39.2,81,29.86,10.0,NW,6.9,-,N/A,,Overcast,310,2014-02-21 22:55:00
6:15 PM,44.6,39.2,81,29.87,4.0,WNW,8.1,-,N/A,,Overcast,300,2014-02-21 23:15:00
6:35 PM,44.6,39.2,81,29.86,10.0,Calm,Calm,-,N/A,,Overcast,0,2014-02-21 23:35:00
6:55 PM,44.6,39.2,81,29.87,10.0,Calm,Calm,-,N/A,,Overcast,0,2014-02-21 23:55:00
7:15 PM,44.6,39.2,81,29.87,10.0,Calm,Calm,-,N/A,,Overcast,0,2014-02-22 00:15:00
7:35 PM,44.6,39.2,81,29.88,10.0,West,3.5,-,N/A,,Overcast,260,2014-02-22 00:35:00
7:55 PM,44.6,39.2,81,29.89,10.0,WNW,3.5,-,N/A,,Overcast,290,2014-02-22 00:55:00
8:15 PM,44.6,37.4,76,29.89,10.0,Calm,Calm,-,N/A,,Scattered Clouds,0,2014-02-22 01:15:00
8:35 PM,42.8,37.4,81,29.89,7.0,NNW,3.5,-,N/A,,Clear,330,2014-02-22 01:35:00
8:55 PM,39.2,35.6,87,29.90,10.0,West,4.6,-,N/A,,Clear,260,2014-02-22 01:55:00
9:15 PM,41.0,37.4,87,29.90,10.0,West,3.5,-,N/A,,Clear,280,2014-02-22 02:15:00
9:35 PM,37.4,33.8,87,29.91,9.0,WSW,3.5,-,N/A,,Clear,250,2014-02-22 02:35:00
9:55 PM,37.4,33.8,87,29.92,1.5,Calm,Calm,-,N/A,,Clear,0,2014-02-22 02:55:00
10:15 PM,37.4,33.8,87,29.93,1.2,Calm,Calm,-,N/A,,Clear,0,2014-02-22 03:15:00
10:35 PM,37.4,33.8,87,29.93,1.0,Calm,Calm,-,N/A,,Clear,0,2014-02-22 03:35:00
10:55 PM,35.6,32.0,87,29.94,0.5,Calm,Calm,-,N/A,,Scattered Clouds,0,2014-02-22 03:55:00
11:15 PM,35.6,32.0,87,29.93,1.0,Calm,Calm,-,N/A,,Mostly Cloudy,0,2014-02-22 04:15:00
11:35 PM,33.8,30.2,87,29.94,0.5,Calm,Calm,-,N/A,,Unknown,0,2014-02-22 04:35:00
11:55 PM,33.8,30.2,87,29.95,1.0,Calm,Calm,-,N/A,,Clear,0,2014-02-22 04:55:00